EW9837 Weather Reports


Display with metric or nautical units.
time (UTC)temp
F
wind
direction
speed
MPH
gust
MPH
rain 1hr
in
rain 24hr
in
rain mn
in
humidity
%
barometer
mb
20260906030030 53 179 3.0 5.0 0.00 0.16 0.14 92 1019.0
20260906024537 54 171 3.0 5.0 0.00 0.16 0.14 91 1019.0
20260906023029 55 176 3.0 5.0 0.00 0.16 0.14 90 1019.1
20260906021533 57 173 1.0 4.0 0.00 0.16 0.14 89 1019.1
20260906020033 58 175 0.0 2.0 0.00 0.16 0.14 87 1019.2
20260906014534 58 157 0.0 1.0 0.00 0.16 0.14 85 1019.1
20260906013035 59 159 0.0 1.0 0.00 0.16 0.14 84 1019.1
20260906011533 59 225 0.0 1.0 0.00 0.16 0.14 85 1019.2
20260906010035 60 242 0.0 3.0 0.00 0.16 0.14 86 1019.4
20260906004536 60 315 0.0 1.0 0.00 0.16 0.14 84 1019.6
20260906003037 60 291 0.0 2.0 0.01 0.16 0.14 85 1019.6
20260906001535 58 124 1.0 6.0 0.02 0.16 0.14 88 1019.7
20260905234534 58 125 1.0 8.0 0.02 0.16 0.13 88 1019.5
20260905233034 59 181 0.0 6.0 0.01 0.15 0.12 87 1019.6
20260905231534 59 283 0.0 2.0 0.10 0.14 0.12 87 1019.7
20260905224534 58 261 0.0 3.0 0.11 0.14 0.12 85 1019.5
20260905221608 62 225 2.0 8.0 0.01 0.04 0.01 73 1019.6
20260905214642 63 205 1.0 4.0 0.00 0.03 0.01 71 1019.5
20260905213034 62 85 0.0 3.0 0.00 0.03 0.01 70 1019.5
20260905211643 62 295 0.0 2.0 0.00 0.03 0.01 71 1019.7
20260905210033 62 282 0.0 4.0 0.00 0.03 0.01 71 1019.9
20260905203105 61 301 0.0 3.0 0.00 0.03 0.01 72 1020.0
20260905201531 60 70 1.0 3.0 0.00 0.03 0.01 74 1020.0
20260905200034 60 354 1.0 5.0 0.00 0.03 0.01 73 1020.1
20260905194532 61 245 1.0 4.0 0.00 0.03 0.01 75 1020.2
20260905191534 58 263 2.0 8.0 0.00 0.03 0.01 81 1020.2
20260905190035 57 305 1.0 3.0 0.00 0.03 0.01 81 1020.3
20260905184536 58 317 1.0 6.0 0.00 0.03 0.01 82 1020.4
20260905183037 58 340 2.0 5.0 0.00 0.03 0.01 83 1020.5
20260905181536 58 16 2.0 5.0 0.00 0.03 0.01 84 1020.6
20260905180144 57 1 1.0 5.0 0.00 0.03 0.01 86 1020.6
20260905173135 55 45 1.0 4.0 0.00 0.03 0.01 94 1020.6
20260905171534 54 40 0.0 2.0 0.00 0.03 0.01 97 1020.5
20260905170030 53 45 0.0 1.0 0.00 0.03 0.01 98 1020.4
20260905164536 52 157 0.0 0.0 0.00 0.03 0.01 98 1020.4
20260905163035 52 157 0.0 0.0 0.00 0.03 0.01 98 1020.4
20260905161533 52 157 0.0 0.0 0.00 0.03 0.01 98 1020.3
20260905154606 51 157 0.0 0.0 0.00 0.03 0.01 98 1020.3
20260905153032 50 157 0.0 0.0 0.00 0.03 0.01 98 1020.2
20260905151536 49 157 0.0 0.0 0.00 0.03 0.01 98 1020.1
20260905144534 47 157 0.0 1.0 0.00 0.03 0.01 98 1020.0
20260905143031 46 164 0.0 2.0 0.00 0.03 0.01 98 1019.9
20260905141537 45 180 0.0 2.0 0.00 0.03 0.01 97 1019.8
20260905140035 43 180 0.0 0.0 0.00 0.03 0.01 97 1019.7
20260905134536 43 180 0.0 2.0 0.00 0.03 0.01 97 1019.6
20260905133033 44 161 1.0 3.0 0.00 0.03 0.01 97 1019.4
20260905131531 44 157 0.0 1.0 0.00 0.03 0.01 97 1019.4
20260905130036 45 157 2.0 2.0 0.00 0.03 0.01 97 1019.4
20260905124608 46 142 0.0 3.0 0.00 0.03 0.01 97 1019.5
20260905123143 47 135 0.0 0.0 0.00 0.03 0.01 97 1019.5
20260905121534 47 135 0.0 2.0 0.00 0.03 0.01 97 1019.5
20260905114536 47 179 0.0 2.0 0.00 0.04 0.01 97 1019.4
20260905113035 48 157 0.0 0.0 0.00 0.04 0.01 97 1019.3
20260905111537 48 149 0.0 3.0 0.00 0.04 0.01 97 1019.2
20260905104535 48 22 0.0 0.0 0.00 0.05 0.01 97 1019.3
20260905103037 49 22 0.0 0.0 0.00 0.05 0.01 97 1019.2
20260905101533 49 22 0.0 0.0 0.00 0.05 0.01 97 1019.2
20260905100037 49 22 0.0 1.0 0.00 0.05 0.01 97 1019.3
20260905094535 49 106 0.0 2.0 0.00 0.05 0.01 97 1019.3
20260905093034 49 139 1.0 3.0 0.00 0.05 0.01 96 1019.3
20260905091534 49 202 0.0 2.0 0.00 0.05 0.01 96 1019.3
20260905090031 49 202 0.0 2.0 0.00 0.05 0.01 96 1019.2
20260905084535 49 158 0.0 1.0 0.00 0.05 0.01 96 1019.2
20260905081648 49 157 0.0 0.0 0.01 0.05 0.01 96 1019.1
20260905080034 49 157 0.0 2.0 0.01 0.05 0.01 96 1019.0
20260905074535 49 157 0.0 3.0 0.01 0.05 0.01 96 1018.9
20260905073036 49 157 2.0 3.0 0.01 0.05 0.00 95 1018.7
20260905071536 49 168 2.0 3.0 0.00 0.04 0.00 95 1018.6
20260905070035 49 186 1.0 3.0 0.01 0.04 0.00 95 1018.5
20260905063030 51 315 0.0 0.0 0.02 0.04 0.04 95 1018.5
20260905061533 51 315 0.0 3.0 0.02 0.04 0.03 95 1018.4
20260905054535 51 135 2.0 3.0 0.00 0.02 0.02 94 1018.7
20260905051535 51 180 0.0 2.0 0.00 0.02 0.02 94 1018.5
20260905050035 51 180 0.0 0.0 0.00 0.02 0.02 93 1018.5
20260905044536 51 180 0.0 0.0 0.00 0.02 0.02 93 1018.4
20260905043035 52 180 0.0 0.0 0.00 0.02 0.02 93 1018.2
20260905041535 52 180 0.0 2.0 0.00 0.02 0.02 92 1018.2
20260905040108 52 178 0.0 3.0 0.00 0.02 0.02 92 1018.1
20260905034537 52 164 1.0 3.0 0.00 0.02 0.02 90 1018.0
20260905031534 53 177 1.0 3.0 0.00 0.02 0.02 87 1017.8